Location: Newark
(39.6172°N, 96.8533°W)
Time: 21:22:53
(UTC+00:00)

LightSail 2 - Visible Passes

Search period start: 22 January 2020 00:00
Search period end: 01 February 2020 00:00
Orbit: 704 x 720 km, 24.0° (Epoch: 22 January)

Date Brightness Start Highest point End Pass type
(mag) Time Alt. Az. Time Alt. Az. Time Alt. Az.
22 Jan 7.6 00:16:12 10° SSW 00:18:01 12° S 00:19:50 10° SSE visible
22 Jan 7.4 02:00:10 10° SSW 02:02:39 13° S 02:02:43 13° S visible
23 Jan 7.5 01:01:55 10° SSW 01:04:27 14° S 01:06:59 10° SSE visible
24 Jan 7.5 00:03:50 10° SSW 00:06:14 13° S 00:08:39 10° SSE visible
24 Jan 7.5 01:48:55 10° SSW 01:50:52 12° S 01:52:15 11° S visible
25 Jan 7.6 00:50:20 10° SSW 00:52:39 13° S 00:55:00 10° SSE visible
27 Jan 7.7 00:39:18 10° SSW 00:40:50 11° S 00:42:21 10° S visible
